IRIDIUM 46 [-]

Last updated on Sun May 12 2019 04:05:40 GMT+0100 (British Summer Time)

1 24905U 97043C 19131.79387008 .70300962 -16113-5 50203-3 0 9998 2 24905 86.3340 285.7280 0006996 272.9672 87.2952 16.53345512142581

Satellite not in orbit